Regional Weather Roundup
Issued by NWS

Home | Current Version | Previous Version | Text Only | Print | Product List | Glossary On
Versions: 1 2 3 4 5 6 7 8 9 10 11 12 13 14 15 16 17 18 19 20 21 22 23 24 25 26 27
000
ASUS45 KBOU 301407
RWRCO

WEATHER ROUNDUP FOR COLORADO
NATIONAL WEATHER SERVICE DENVER/BOULDER CO
800 AM MDT TUE MAY 30 2017

NOTE: "FAIR" INDICATES FEW OR NO CLOUDS BELOW 12000 FEET WITH NO
SIGNIFICANT WEATHER AND/OR OBSTRUCTIONS TO VISIBILITY.

COZ001>005-013-030-031-301500-
...NORTHWEST COLORADO...

CITY           SKY/WX    TMP DP  RH WIND       PRES   REMARKS
CRAIG          FAIR      48  40  73 CALM      30.26R
HAYDEN         FAIR      48  32  53 E14       30.27S
MEEKER         FAIR      51  35  54 N3        30.26S
RABBIT EARS PA FAIR      43  28  56 CALM      30.44S
STEAMBOAT SPGS FAIR      43  35  75 CALM      30.29S
WALDEN           N/A     39  32  75 CALM      30.37R
$$

COZ006>008-011-301500-
...WEST CENTRAL VALLEYS...

CITY           SKY/WX    TMP DP  RH WIND       PRES   REMARKS
GRAND JUNCTION FAIR      62  36  37 SE14      30.17R
MONTROSE       FAIR      55  30  38 SE3       30.24R
EAGLE          SUNNY     45  34  65 CALM      30.35R
RIFLE          FAIR      55  36  48 VRB3      30.24R
DELTA          FAIR      57  32  39 CALM      30.21S
NUCLA          FAIR      55  28  35 SE3       30.25S
$$

COZ017>023-064>068-301500-
...SOUTHWEST COLORADO...

CITY           SKY/WX    TMP DP  RH WIND       PRES   REMARKS
DURANGO        FAIR      53  31  42 CALM      30.29R
CORTEZ         FAIR      53  35  50 CALM      30.22R
PAGOSA SPRINGS FAIR      51  31  47 CALM      30.35R
TELLURIDE      FAIR      49  25  38 SE3       30.39S
WOLF CREEK PAS FAIR      36  30  80 SW6       30.57R
$$

COZ009-010-012-014-032>034-037-058>063-301500-
...CENTRAL COLORADO...

CITY           SKY/WX    TMP DP  RH WIND       PRES   REMARKS
ASPEN          FAIR      47  30  51 CALM      30.32F
BUENA VISTA    FAIR      49  35  57 N5        30.37S
COPPER MTN     FAIR      39  23  52 NW8       30.52R
BERTHOUD PASS  FAIR      32  21  64 NW16      30.52S WCI  21
COTTONWOOD PAS FAIR      46  36  66 CALM      30.43S
GUNNISON       FAIR      43  30  60 CALM      30.37S
KREMMLING      FAIR      45  37  76 CALM      30.37S
LEADVILLE      FAIR      41  32  70 N7        30.43S
MONARCH PASS   FAIR      36  30  80 SW12      30.62R
SALIDA         FAIR      48  36  62 N7        30.43S
SUNLIGHT       FAIR      43  21  42 CALM      30.49R
WILKERSON PASS FAIR      36  32  87 W3        30.52R
$$

COZ069>075-301500-
...SAN LUIS VALLEY/SANGRE DE CRISTO MOUNTAINS...

CITY           SKY/WX    TMP DP  RH WIND       PRES   REMARKS
ALAMOSA        FAIR      48  39  71 E6        30.35R
DEL NORTE      FAIR      47  31  52 W7        30.37R
LA VETA PASS   FAIR      41  32  70 MISG      30.54R
SAGUACHE       FAIR      50  32  50 NW10      30.36F
$$

COZ035-036-038>040-301500-
...NORTHERN COLORADO FRONT RANGE...

CITY           SKY/WX    TMP DP  RH WIND       PRES   REMARKS
DENVER INTL AP FAIR      56  44  64 SW8       30.22R
DMNS CITY PARK   N/A     58  41  52 E9        30.23S
AURORA         SUNNY     55  41  59 W8        30.23S
FRONT RANGE AP SUNNY     57  46  67 SW7       30.23R
ERIE MUNI ARPT FAIR      55  46  72 CALM      30.22S
BOULDER MUN AP FAIR      55  45  67 CALM      30.21F
CENTENNIAL     FAIR      57  42  57 W8        30.24R
BROOMFIELD     SUNNY     57  41  54 CALM      30.23S
FORT COLLINS   FAIR      56  42  59 CALM      30.22R
LONGMONT       FAIR      57  46  65 CALM      30.22F
$$

COZ041-046-047-076>085-087-088-301500-
...PIKES PEAK/PALMER DIVIDE AND SOUTHERN FOOTHILLS...

CITY           SKY/WX    TMP DP  RH WIND       PRES   REMARKS
COLO. SPRINGS  FAIR      60  46  59 CALM      30.25F
A. F. ACADEMY  FAIR      54  46  74 N10       30.25F
SCHRIEVER AFB  FAIR      58  41  52 W6        30.25S
CHEYENNE MTN   FAIR      59  38  45 CALM      30.22S
ELLICOTT       FAIR     N/A N/A N/A NW3       30.24S
FALCON         FAIR      58  38  47 W6        30.28S
FORT CARSON    FAIR      56  43  61 N7        30.23S
LIMON          FAIR      56  50  80 NW3       30.22S
MONUMENT HILL  FAIR      54  41  62 W9        30.30R
CANON CITY     NOT AVBL
WALSENBURG     FAIR      59  46  63 CALM      30.26S
TRINIDAD       FAIR      56  45  66 W10       30.25S
$$

COZ042>045-048>051-090-091-301500-
...NORTHEAST COLORADO...

CITY           SKY/WX    TMP DP  RH WIND       PRES   REMARKS
GREELEY ARPT   FAIR      55  45  68 VRB3      30.22R
AKRON          FAIR      59  45  59 W6        30.20R
BURLINGTON     FAIR      60  52  74 W8        30.18R
WRAY           FAIR      63  46  55 W5        30.17R
YUMA           FAIR      59  41  51 W7        30.17S
STERLING       NOT AVBL
HOLYOKE        NOT AVBL
FORT MORGAN    NOT AVBL
$$

COZ086-089-092>099-301500-
...SOUTHEAST COLORADO...

CITY           SKY/WX    TMP DP  RH WIND       PRES   REMARKS
PUEBLO         FAIR      57  46  66 W5        30.20S
LA JUNTA       FAIR      58  49  72 W7        30.20R
LAMAR          FAIR      57  52  83 W5        30.17R
SPRINGFIELD      N/A     58  51  78 VRB5      30.20S
$$




USA.gov is the U.S. government's official web portal to all federal, state and local government web resources and services.